Weather History for Doylestown, PA

Change the Weather History Date:

Saturday, May 10, 2014

  Actual Average (KTTN) Record (KTTN)
Temperature  
Mean Temperature 70 °F 59 °F  
Max Temperature 81 °F 70 °F 95 °F (1893)
Min Temperature 59 °F 49 °F 35 °F (1986)
Degree Days  
Heating Degree Days 0 7  
Month to date heating degree days 80  
Since 1 July heating degree days 5048  
Cooling Degree Days 5 1  
Month to date cooling degree days 10  
Year to date cooling degree days 18  
Growing Degree Days 20 (Base 50)    
Moisture  
Dew Point 60 °F    
Average Humidity 90    
Maximum Humidity 100    
Minimum Humidity 45    
Precipitation  
Precipitation 0.42 in 0.11 in 1.90 in (1989)
Month to date precipitation 1.07  
Year to date precipitation 14.22  
Sea Level Pressure  
Sea Level Pressure 29.91 in    
Wind  
Wind Speed 5 mph (SSW)    
Max Wind Speed 17 mph    
Max Gust Speed 31 mph    
Visibility 5 miles    
Events Rain , Thunderstorm    
T = Trace of Precipitation, MM = Missing Value Source: NWS Daily Summary

Daily Weather History Graph

Daily Weather History Graph

Search for Another Location

Airport:

Trip Planner

Search our weather history database for the weather conditions in past years. The results will help you decide how hot, cold, wet, or windy it might be!

Date:

Astronomy

May. 10, 2014 Rise Set
Actual Time 5:49 AM EDT 8:04 PM EDT
Civil Twilight 5:19 AM EDT 8:35 PM EDT
Nautical Twilight 4:41 AM EDT 9:12 PM EDT
Astronomical Twilight 4:00 AM EDT 9:54 PM EDT
Moon 3:57 PM EDT (5/10) 3:22 AM EDT (5/10)
Length of Visible Light 15h 16m
Length of Day
14h 15m
Waxing Gibbous, 82% of the Moon is Illuminated
May 10
Waxing Gibbous
May 14
Full
May 21
Last Quarter
May 28
New
Jun 5
First Quarter

Hourly Weather History & Observations

Time (EDT) Temp. Heat Index Dew Point Humidity Pressure Visibility Wind Dir Wind Speed Gust Speed Precip Events Conditions
12:54 AM 60.1 °F - 60.1 °F 100% 29.95 in 1.0 mi South 5.8 mph - N/A   Mist
1:54 AM 59.0 °F - 59.0 °F 100% 29.94 in 1.2 mi SSE 5.8 mph - N/A   Overcast
2:16 AM 59.0 °F - 59.0 °F 100% 29.92 in 0.8 mi SE 4.6 mph - N/A   Mist
2:54 AM 60.1 °F - 60.1 °F 100% 29.92 in 0.8 mi Calm Calm - N/A   Mist
3:22 AM 60.1 °F - 60.1 °F 100% 29.92 in 1.0 mi Calm Calm - N/A   Mist
3:46 AM 60.1 °F - 60.1 °F 100% 29.92 in 0.8 mi Calm Calm - N/A   Mist
3:54 AM 60.1 °F - 60.1 °F 100% 29.91 in 1.0 mi Calm Calm - N/A   Mist
4:04 AM 60.1 °F - 60.1 °F 100% 29.92 in 3.0 mi SSE 3.5 mph - 0.00 in Rain Light Rain
4:21 AM 60.1 °F - 60.1 °F 100% 29.91 in 3.0 mi Calm Calm - 0.00 in Rain Light Rain
4:40 AM 60.1 °F - 60.1 °F 100% 29.91 in 2.5 mi Calm Calm - 0.00 in   Overcast
4:54 AM 60.1 °F - 60.1 °F 100% 29.90 in 2.0 mi Calm Calm - 0.00 in   Overcast
5:11 AM 60.1 °F - 60.1 °F 100% 29.90 in 1.8 mi SSE 3.5 mph - N/A   Overcast
5:23 AM 59.0 °F - 59.0 °F 100% 29.91 in 0.8 mi SSE 4.6 mph - N/A   Overcast
5:34 AM 59.0 °F - 59.0 °F 100% 29.91 in 1.0 mi SSE 4.6 mph - N/A   Mist
5:54 AM 60.1 °F - 60.1 °F 100% 29.91 in 1.5 mi South 3.5 mph - N/A   Overcast
6:33 AM 60.1 °F - 60.1 °F 100% 29.93 in 2.5 mi South 3.5 mph - N/A   Overcast
6:54 AM 60.1 °F - 60.1 °F 100% 29.93 in 3.0 mi SSW 3.5 mph - N/A   Overcast
7:54 AM 61.0 °F - 61.0 °F 100% 29.94 in 5.0 mi SSW 4.6 mph - N/A   Mostly Cloudy
8:09 AM 62.1 °F - 62.1 °F 100% 29.95 in 6.0 mi South 4.6 mph - N/A   Scattered Clouds
8:54 AM 66.9 °F - 63.0 °F 87% 29.94 in 10.0 mi SW 9.2 mph - N/A   Clear
9:54 AM 70.0 °F - 62.1 °F 76% 29.94 in 10.0 mi Variable 5.8 mph - N/A   Clear
10:54 AM 73.9 °F - 62.1 °F 66% 29.94 in 10.0 mi WSW 9.2 mph - N/A   Clear
11:54 AM 77.0 °F - 63.0 °F 62% 29.93 in 10.0 mi SW 9.2 mph - N/A   Partly Cloudy
12:54 PM 80.1 °F 81.1 °F 61.0 °F 52% 29.90 in 10.0 mi SW 11.5 mph 19.6 mph N/A   Scattered Clouds
1:54 PM 78.1 °F - 61.0 °F 56% 29.88 in 10.0 mi West 12.7 mph 19.6 mph 0.05 in   Partly Cloudy
2:54 PM 81.0 °F 81.3 °F 59.0 °F 47% 29.86 in 10.0 mi SW 11.5 mph - 0.01 in   Clear
3:54 PM 79.0 °F - 55.9 °F 45% 29.86 in 10.0 mi SW 12.7 mph 23.0 mph N/A   Mostly Cloudy
4:54 PM 68.0 °F - 61.0 °F 78% 29.89 in 10.0 mi SW 17.3 mph 31.1 mph 0.00 in   Mostly Cloudy
5:54 PM 70.0 °F - 60.1 °F 71% 29.88 in 10.0 mi WSW 9.2 mph 19.6 mph N/A   Partly Cloudy
6:54 PM 64.9 °F - 61.0 °F 87% 29.88 in 10.0 mi WSW 4.6 mph - 0.00 in   Overcast
7:54 PM 64.9 °F - 61.0 °F 87% 29.90 in 10.0 mi SW 6.9 mph - N/A   Partly Cloudy
8:54 PM 64.0 °F - 60.1 °F 87% 29.91 in 10.0 mi SSW 4.6 mph - 0.00 in Rain Light Rain
9:54 PM 62.1 °F - 61.0 °F 96% 29.91 in 10.0 mi SSW 3.5 mph - 0.00 in Rain Light Rain
10:24 PM 62.1 °F - 62.1 °F 100% 29.93 in 1.8 mi Variable 5.8 mph - 0.21 in Rain Heavy Rain
10:29 PM 62.1 °F - 61.0 °F 96% 29.93 in 1.5 mi SW 5.8 mph - 0.27 in Rain , Thunderstorm Heavy Thunderstorms and Rain
10:34 PM 62.1 °F - 62.1 °F 100% 29.92 in 3.0 mi SW 8.1 mph - 0.30 in Rain , Thunderstorm Heavy Thunderstorms and Rain
10:49 PM 60.8 °F - 60.8 °F 100% 29.92 in 7.0 mi SSW 5.8 mph - 0.34 in Rain Rain
10:54 PM 61.0 °F - 61.0 °F 100% 29.91 in 9.0 mi SSW 6.9 mph - 0.35 in Rain Light Rain
11:54 PM 60.1 °F - 60.1 °F 100% 29.91 in 10.0 mi SW 4.6 mph - 0.01 in Rain Light Rain